Hourly Data Report for July 06, 2003

SHERBROOKE A
QUEBEC

45°26'00.000" N
71°41'00.000" W
241.40 m
7028124
71610
YSC

Download Data

Hourly Data (July 2003)
Hourly Data Report for July 6, 2003
TIME
LST
Temp Definition
°C
Dew Point Definition
°C
Rel Hum Definition
%
Precip. Amount Definition
mm

Wind Dir Definition
10's deg

Wind Spd Definition
km/h
Visibility Definition
km
Stn Press Definition
kPa
Hmdx Definition


Wind Chill Definition


Weather Definition


00:00 18.4 17.5 94   18 7 11.3 97.87      
01:00 18.7 17.1 90   21 6 15.0 97.83      
02:00 15.2 14.3 94   30 4 0.5 97.86      
03:00 15.2 14.5 96   31 6 11.3 97.89      
04:00 15.6 14.8 95   21 7 9.7 97.90      
05:00 15.1 14.7 97   29 6 0.6 97.99      
06:00 18.4 17.2 93   19 6 12.9 98.02      
07:00 19.8 17.9 89   24 7 24.1 98.09     Mainly Clear
08:00 21.8 15.4 67   34 11 24.1 98.11 26   Mostly Cloudy
09:00 22.9 16.9 69   27 11 24.1 98.13 28   Mainly Clear
10:00 23.9 15.8 61   28 9 24.1 98.13 28   Mainly Clear
11:00 24.7 15.8 58   29 9 24.1 98.15 29   Mainly Clear
12:00 24.9 14.7 53   29 11 24.1 98.15 29   Mainly Clear
13:00 25.4 14.6 51   31 13 24.1 98.17 29   Mainly Clear
14:00 26.0 13.9 47   28 13 24.1 98.12 29   Mainly Clear
15:00 26.2 13.1 44   30 15 24.1 98.13 29   Mainly Clear
16:00 24.6 13.8 51   31 13 24.1 98.16 28   Mainly Clear
17:00 23.1 15.5 62   29 7 15.0 98.18 27    
18:00 24.5 15.1 56   30 11 15.0 98.21 29    
19:00 22.6 15.2 63   30 7 15.0 98.25 27    
20:00 17.6 15.2 86     0 15.0 98.31      
21:00 15.4 13.8 90     0 15.0 98.35      
22:00 14.5 13.3 93     0 15.0 98.39      
23:00 13.4 12.8 96   8 4 15.0 98.43      

Notes on Data Quality.

Legend

  • E = Estimated
  • M = Missing
  • NA = Not Available*
  • [empty] = Indicates an unobserved value
Date modified: